{"data":{"norad_id":48317,"intl_designator":"2021-036AT","name":"STARLINK-2513","alt_names":[],"object_type":"PAYLOAD","status":"ACTIVE","operator":null,"country":"US","launch_date":"2021-04-29","launch_site_code":"AFETR","launch_vehicle":null,"mission":null,"orbit_class":"UNKNOWN","rcs_meters":null,"size_class":null,"mass_kg":null,"dimensions":null,"purposes":["comms"],"wikipedia_slug":null,"has_3d_model":false,"image_url":null,"decayed_at":null,"tle_current":{"epoch":"2026-05-25T03:44:45.643776Z","epoch_age_seconds":58805,"freshness":"FRESH","line1":"1 48317U 21036AT  26145.15608384 -.00000767  00000+0 -12940-4 0  9999","line2":"2 48317  53.1589  92.5346 0001322 103.4461 256.6688 15.31701024279937","mean_motion":15.31701024,"eccentricity":0.0001322,"inclination_deg":53.1589,"raan_deg":92.5346,"arg_perigee_deg":103.4461,"mean_anomaly_deg":256.6688,"bstar":-1.294e-5,"rev_number":27993,"period_min":94.013125109721,"perigee_km":469.8315216014,"apogee_km":471.64236387186,"semimajor_km":6848.8739427366,"source":"CELESTRAK","updated_at":"2026-05-25T13:38:16.680705Z"}}}